CAPE
0 0 0 0 0 0 0 0 4 0 2 0 0 0 0 0 0 0 0 47 23 43 271 349 1022 931 837 622 476 324 177 48 0 0 0 0 0 0 0 0 0 0 0 0 0 0 0 0 0
0 0 0 0 0 0 3 1 8 21 9 0 0 0 0 1 0 0 29 86 37 61 426 150 1246 1105 1051 826 712 559 386 151 47 0 0 0 0 0 0 0 0 0 0 0 0 3 24 5 0
0 0 0 0 0 0 88 68 59 8 0 0 0 0 0 0 0 0 85 105 64 36 685 268 1372 1217 1227 1094 897 750 675 487 189 14 5 6 7 7 4 0 0 0 37 8 12 10 134 173 41
0 0 0 0 0 6 33 174 75 18 42 0 0 0 0 0 0 0 16 106 84 50 359 1186 1385 1370 1368 1349 1178 1053 903 800 587 254 131 77 86 226 121 36 44 70 164 186 138 97 115 162 34
0 0 0 0 0 0 32 0 115 118 70 24 3 0 0 5 0 0 27 81 104 68 104 1058 1607 1595 1579 1611 1444 1287 1169 1066 972 614 376 285 504 581 372 194 284 449 522 484 309 357 355 174 83
0 0 0 0 0 0 0 0 0 0 21 23 11 4 0 3 0 0 15 74 86 92 89 285 1853 1774 1688 1674 1588 1476 1421 1376 1282 1174 1001 825 898 991 827 736 768 760 672 552 423 408 423 398 123
0 0 0 1 3 0 1 1 0 0 16 17 9 0 1 58 15 4 19 51 79 98 63 139 1720 1753 1806 1801 1690 1656 1646 1623 1591 1478 1348 1332 1178 1350 1038 989 796 605 326 159 140 214 299 353 239
0 0 0 18 9 0 17 2 0 0 7 22 0 0 9 72 14 2 7 29 51 101 98 149 640 1860 1476 996 1904 1855 1824 1774 1694 1643 1570 1622 1197 1357 1094 686 238 47 12 14 0 31 77 164 243
0 0 0 0 2 0 2 16 10 13 1 0 0 3 0 0 7 25 18 14 42 69 140 172 253 979 1346 649 980 1938 1759 1742 1755 1436 1527 1479 564 418 751 614 101 28 9 0 0 0 2 24 50
0 0 0 0 5 16 15 16 21 23 28 0 0 3 10 27 18 39 5 0 23 85 133 208 1044 685 1177 649 836 1533 963 1012 977 774 616 1168 724 531 477 552 121 41 11 0 0 22 34 128 18
0 0 0 29 44 11 47 29 32 36 54 25 0 0 1 10 35 41 2 0 10 19 135 264 1720 2082 1590 1068 697 1600 1284 1151 1154 1039 1194 1209 605 754 740 704 747 514 289 308 140 147 211 84 140
1 0 0 10 28 16 16 13 34 35 42 21 0 0 0 11 23 27 0 6 13 92 76 294 700 2367 2778 1127 637 912 1359 1224 1008 1118 1398 1051 700 948 1021 674 695 763 339 283 87 39 67 168 102
0 0 0 1 4 12 20 1 4 0 4 0 0 0 2 15 3 2 0 0 1 95 102 150 1240 2612 2892 3172 1037 1433 1421 998 1161 779 818 877 768 1210 821 994 536 779 343 569 612 522 390 199 208
0 0 0 0 0 4 23 0 3 2 4 0 0 1 3 7 0 0 0 0 13 116 134 194 1301 2650 2739 2601 3012 2502 2427 1208 884 635 471 790 1031 1045 797 822 626 740 509 363 419 525 761 451 434
1 7 6 2 1 1 14 0 0 0 0 0 0 0 9 0 0 0 0 0 3 112 252 1443 2153 2737 3254 3312 2884 2157 1388 1011 776 633 681 735 1094 1112 1084 983 947 1340 1209 880 655 605 862 277 231
0 20 4 0 0 4 44 0 0 0 4 5 0 2 1 0 0 0 0 16 292 293 881 1212 874 2491 3474 3301 2719 2007 1163 985 499 408 578 1087 1162 1125 1067 1074 1023 1470 1400 1156 1047 733 700 319 213
0 1 0 0 7 26 67 0 1 0 0 1 16 1 0 0 0 23 0 0 295 691 1565 1047 1965 1558 3187 3254 2406 2101 2216 796 411 453 630 764 1009 1006 1247 1013 1176 1201 1365 1360 910 854 620 368 172
0 0 0 0 0 38 51 32 37 0 0 0 1 10 0 0 0 4 5 25 127 386 884 1448 1794 2617 3263 2592 2438 1298 772 659 442 586 650 779 995 866 1232 1035 1204 1116 1167 873 1004 666 587 375 1066
0 0 0 0 1 22 0 27 60 24 6 3 0 0 0 0 0 12 6 57 160 271 719 1182 1597 2925 2695 2053 1462 954 570 687 528 639 739 931 1012 1322 1044 1097 1098 1129 1023 956 1034 644 530 654 724
0 0 0 0 0 47 24 41 35 17 8 0 0 0 0 0 0 0 0 417 292 548 749 842 1310 2277 2443 1750 1472 824 825 449 597 612 827 990 924 968 835 971 1085 996 1142 877 438 667 602 709 602
0 0 0 0 0 15 17 6 0 0 0 0 0 0 0 0 0 0 0 507 414 575 752 877 1187 1936 2018 1727 1235 778 725 649 681 408 702 1086 822 1052 859 919 906 810 1179 928 849 811 614 578 978
0 0 0 0 0 0 3 0 0 0 0 0 0 0 0 0 0 0 2 559 581 646 779 968 1317 1323 994 1522 1279 1837 817 463 327 642 480 777 579 580 574 610 695 791 1271 808 822 835 581 966 781
0 0 0 0 0 0 0 0 0 0 0 0 0 0 0 0 0 0 163 536 568 656 825 1048 1123 905 972 862 1387 676 669 283 424 258 629 899 756 500 528 611 719 786 842 834 813 758 736 1061 1138
0 0 1 12 0 0 0 0 0 0 0 0 0 0 0 0 1 65 510 552 591 605 789 922 853 807 767 551 644 848 624 411 307 531 867 1004 975 865 753 420 548 644 876 786 774 815 845 1046 1222
0 7 2 1 0 0 0 0 0 0 0 0 0 0 0 82 303 446 490 512 529 620 699 742 686 761 587 530 606 629 723 782 803 668 1029 719 591 911 955 468 619 707 819 854 778 855 764 984 1156
0 0 0 0 0 0 0 0 0 0 0 0 0 0 158 361 420 446 455 503 534 584 579 480 601 549 461 500 508 586 708 621 438 734 587 1131 646 826 532 573 661 807 722 887 853 655 742 648 874
0 1 0 1 7 9 9 1 0 0 0 0 0 0 230 491 548 540 539 524 517 482 467 488 504 434 417 385 553 545 709 419 962 708 425 497 598 551 389 452 626 580 583 739 810 946 891 677 790
1 0 0 0 2 8 13 15 0 1 1 0 14 5 131 538 573 559 531 498 464 420 394 490 453 404 290 375 464 577 576 559 555 520 397 743 533 183 387 463 605 615 611 774 883 1129 883 892 1187
0 7 0 0 0 14 26 2 0 1 24 9 11 77 473 615 522 487 443 441 437 390 458 535 368 233 233 414 343 1017 793 524 378 378 213 683 257 474 136 127 452 536 768 689 857 760 634 684 852
0 3 0 1 0 1 40 25 0 0 11 118 188 403 580 508 443 416 419 422 404 452 478 428 213 138 214 260 377 797 495 554 560 394 136 307 467 191 74 120 82 225 533 694 489 331 354 531 531
CIN
0 0 0 0 0 0 0 0 0 0 -1 0 0 0 0 0 0 0 0 -37 -39 -65 -307 -454 -348 -313 -275 -279 -250 -233 -229 -254 0 0 0 0 0 0 0 0 0 0 0 0 0 0 0 0 0
0 0 0 0 0 0 0 -2 -1 -2 0 0 0 0 0 -1 0 0 -2 -36 -42 -83 -249 -370 -326 -285 -250 -237 -217 -202 -206 -242 -251 0 0 0 0 0 0 0 0 0 0 0 0 0 -33 0 0
0 0 0 0 0 0 -1 -20 -3 -1 0 0 0 0 0 0 0 0 -50 -59 -64 -120 -187 -287 -338 -287 -242 -206 -201 -192 -180 -168 -200 -253 -185 -193 -194 -189 -198 0 0 0 -111 -47 -81 -88 -42 -26 -58
0 0 0 0 0 0 0 -2 -1 -1 -1 0 0 0 0 0 0 0 -49 -48 -62 -134 -139 -260 -330 -285 -246 -189 -185 -175 -160 -143 -140 -178 -192 -204 -175 -80 -100 -202 -177 -111 -18 -22 -48 -52 -40 -29 -87
0 0 0 0 0 0 -1 0 -1 -1 0 -1 -1 0 0 -22 0 0 -61 -59 -67 -85 -150 -155 -293 -255 -227 -170 -160 -150 -144 -115 -86 -118 -136 -140 -64 -32 -35 -45 -3 0 0 0 0 -5 -2 -28 -77
0 0 0 0 0 0 0 0 0 0 -1 -1 -2 0 0 -6 0 0 -47 -26 -34 -35 -116 -122 -257 -248 -211 -161 -138 -122 -119 -92 -60 -36 -25 -28 -11 -1 -4 -1 0 0 0 0 0 -2 0 -1 -67
0 0 0 0 0 0 -1 -1 0 0 0 -1 -2 0 0 -3 -4 -47 -34 -27 -20 -26 -57 -101 -156 -206 -176 -136 -121 -103 -85 -71 -43 -26 -9 0 0 0 0 0 0 -3 -20 -55 -38 -7 0 -1 -16
0 0 0 0 0 0 0 -1 -1 0 0 -1 0 0 -1 -2 -27 -35 -19 -5 -3 -2 -1 -55 -92 -107 -159 -190 -88 -71 -65 -53 -40 -22 -4 0 0 0 0 -22 -95 -154 -204 -192 0 -141 -64 -9 -4
0 0 0 0 -1 0 -2 -1 -2 -1 -10 0 0 0 0 0 -26 -42 -19 -20 -6 -1 -3 -27 -68 -101 -111 -148 -161 -64 -73 -47 -15 -17 -2 -9 -67 -58 -12 -38 -147 -243 -265 0 0 0 -128 -100 -53
0 0 0 0 -1 -2 -1 -1 -1 -1 -2 0 0 -12 -2 0 -5 -18 -12 0 -2 -1 -2 -10 -52 -110 -109 -107 -103 -91 -115 -97 -84 -83 -88 -19 -45 -44 -38 -17 -119 -207 -250 0 0 -171 -100 -17 -72
0 0 0 -1 -2 -2 -2 0 -1 0 -1 -2 0 -2 -3 -26 -21 -19 -9 0 -16 -2 -2 -8 -13 -61 -79 -96 -79 -51 -54 -68 -60 -46 -13 -5 -49 -10 -3 -5 -9 -39 -68 -12 -54 -30 -11 -51 -15
-4 0 0 -3 -2 -3 0 0 -1 -1 -1 0 0 0 0 -23 -22 -15 0 -23 -25 0 -3 -7 -45 -85 -45 -62 -89 -61 -31 -44 -55 -24 -11 -23 -49 -9 -2 -10 -1 -2 -1 -2 -27 -62 -43 -7 -25
0 0 0 0 -8 -4 -1 0 0 0 -1 0 0 0 -30 -18 -12 -44 0 0 -10 -11 -18 -15 -52 -83 -80 -12 -62 -37 -24 -51 -36 -67 -61 -69 -37 0 -1 -1 -14 -2 0 -3 -2 -3 -4 -2 -3
0 0 0 0 0 -3 -1 0 0 0 -1 0 0 -21 -28 -20 0 0 0 0 -61 -19 -17 -32 -41 -83 -111 -81 -2 -7 -2 -36 -92 -93 -116 -68 -26 -4 -8 -1 -4 -2 0 0 -2 -1 -6 -7 -5
0 0 0 0 0 0 -1 0 0 0 0 0 0 -1 -24 -2 0 0 0 0 -97 -25 -22 -33 -39 -91 -104 -61 -22 -33 -88 -97 -115 -119 -97 -70 -14 -5 -7 0 0 0 -1 0 0 0 -2 0 -6
0 0 0 0 0 0 -1 0 0 0 0 -4 0 -1 0 0 0 0 0 -42 -34 -34 -25 -55 -63 -91 -67 -58 -50 -55 -97 -155 -134 -150 -88 -35 -14 -10 -3 0 0 0 0 0 -1 0 0 -5 -5
0 0 0 0 0 0 -1 0 0 0 0 -10 -5 0 0 0 0 -30 0 0 -37 -39 -28 -72 -102 -126 -57 -40 -66 -44 -7 -157 -157 -132 -73 -29 -4 -3 -6 0 0 0 0 0 0 0 0 -14 -3
0 0 0 0 0 -1 0 -1 0 0 0 0 -3 -1 0 0 0 -79 -37 -49 -71 -63 -98 -146 -161 -73 -40 -57 -40 -105 -167 -173 -153 -115 -68 -17 0 -2 -1 0 0 0 0 0 0 0 0 0 0
0 0 0 0 0 0 0 -5 0 0 0 0 0 0 0 0 0 -14 -58 -117 -138 -171 -211 -255 -242 -68 -74 -99 -131 -140 -165 -119 -135 -89 -45 -4 0 -1 0 0 0 0 0 0 0 0 0 0 0
0 0 0 0 0 0 0 0 0 -1 0 0 0 0 0 0 0 0 0 -112 -230 -290 -342 -374 -275 -133 -86 -117 -94 -127 -73 -121 -78 -47 -15 0 0 0 -1 0 0 0 0 0 0 0 0 0 0
0 0 0 0 0 -1 0 0 0 0 0 0 0 0 0 0 0 0 0 -124 -257 -332 -386 -367 -283 -154 -98 -90 -93 -111 -88 -49 -45 -54 0 -2 -3 -1 -1 0 0 0 0 0 0 0 0 0 0
0 0 0 0 0 0 0 0 0 0 0 0 0 0 0 0 0 0 -25 -148 -266 -320 -370 -329 -231 -195 -201 -71 -53 -1 -52 -65 -49 -2 0 -1 -2 0 -1 0 0 0 0 0 0 0 0 0 0
0 0 0 0 0 0 0 0 0 0 0 0 0 0 0 0 0 0 -26 -171 -264 -344 -326 -266 -230 -210 -156 -126 -12 -98 -42 -63 -20 -16 -2 -3 0 -1 0 0 -1 0 0 0 0 0 0 0 0
0 0 0 0 0 0 0 0 0 0 0 0 0 0 0 0 -4 -64 -86 -206 -297 -330 -289 -260 -223 -171 -149 -151 -101 -34 -47 -27 -11 -1 -1 -1 -1 0 0 0 0 0 0 0 0 0 -1 0 0
0 0 0 0 0 0 0 0 0 0 0 0 0 0 0 -22 -55 -69 -154 -240 -295 -298 -280 -238 -188 -148 -142 -126 -82 -39 -12 -2 0 0 -12 0 0 0 0 0 -1 0 0 0 0 0 0 0 0
0 0 0 0 0 0 0 0 0 0 0 0 0 0 -29 -56 -77 -132 -179 -236 -242 -276 -260 -210 -165 -139 -134 -95 -55 -24 -4 0 -1 -2 -1 -15 0 0 0 0 0 0 0 -1 -1 0 0 0 0
0 0 0 0 0 0 0 0 0 0 0 0 0 0 -17 -49 -86 -126 -188 -196 -215 -249 -202 -173 -134 -126 -96 -78 -28 -16 0 0 -5 -2 -4 -1 0 -2 0 0 0 0 0 0 0 0 0 -1 0
0 0 0 0 0 0 0 -1 0 0 -6 0 -25 -7 -20 -65 -89 -141 -155 -184 -209 -201 -173 -122 -112 -98 -97 -61 -25 -4 0 0 0 0 0 -3 0 -1 0 0 0 0 0 0 -3 0 0 0 0
0 0 0 0 0 0 0 0 -1 -1 -1 -9 0 -1 -29 -56 -98 -144 -153 -187 -189 -165 -132 -94 -99 -118 -100 -29 -21 -6 -1 0 0 0 0 -2 -1 0 -8 -5 -1 -1 0 0 0 0 0 0 0
0 0 0 0 0 0 0 -1 0 0 -35 -15 0 -11 -44 -59 -98 -117 -133 -161 -140 -118 -111 -90 -123 -133 -78 -47 -11 -4 -1 0 0 0 0 0 -2 -5 0 -14 0 0 0 0 -1 -6 -4 0 0
Wind_Speed
nan nan nan nan nan nan nan nan nan nan nan nan nan nan nan nan nan nan nan nan nan nan 55 56 55 58 59 59 55 48 43 nan nan nan nan nan nan nan nan nan nan nan nan nan nan nan nan nan nan
nan nan nan nan nan nan nan nan nan nan nan nan nan nan nan nan nan nan nan nan nan nan 54 55 56 57 58 58 55 46 44 45 nan nan nan nan nan nan nan nan nan nan nan nan nan nan nan nan nan
nan nan nan nan nan nan nan nan nan nan nan nan nan nan nan nan nan nan nan 38 nan nan 51 50 59 58 58 56 54 47 46 48 46 nan nan nan nan nan nan nan nan nan nan nan nan nan 28 28 nan
nan nan nan nan nan nan nan 5 nan nan nan nan nan nan nan nan nan nan nan 39 nan nan 49 51 61 58 59 53 51 48 48 47 44 39 35 nan nan 30 30 nan nan nan 15 17 20 nan 24 28 nan
nan nan nan nan nan nan nan nan 25 17 nan nan nan nan nan nan nan nan nan nan 40 nan 46 56 60 56 54 51 51 47 49 46 39 38 37 35 33 31 31 30 30 27 22 16 14 19 21 24 nan
nan nan nan nan nan nan nan nan nan nan nan nan nan nan nan nan nan nan nan nan nan nan nan 57 58 54 49 48 48 46 48 42 39 37 37 37 36 34 31 28 28 30 26 25 22 21 22 23 25
nan nan nan nan nan nan nan nan nan nan nan nan nan nan nan nan nan nan nan nan nan nan nan 50 49 46 45 43 45 47 45 41 40 39 40 39 36 31 27 27 25 23 21 20 20 22 23 22 24
nan nan nan nan nan nan nan nan nan nan nan nan nan nan nan nan nan nan nan nan nan 51 nan 51 46 44 41 43 44 46 47 42 42 40 42 37 32 30 30 28 25 nan nan nan nan nan nan 21 20
nan nan nan nan nan nan nan nan nan nan nan nan nan nan nan nan nan nan nan nan nan nan 46 46 45 42 42 44 46 48 46 44 43 41 43 40 34 30 34 30 36 nan nan nan nan nan nan nan nan
nan nan nan nan nan nan nan nan nan nan nan nan nan nan nan nan nan nan nan nan nan nan 45 40 39 41 41 40 44 48 44 43 43 41 40 41 35 28 27 27 31 nan nan nan nan nan nan 21 nan
nan nan nan nan nan nan nan nan nan nan nan nan nan nan nan nan nan nan nan nan nan nan 40 38 47 40 40 42 45 47 42 43 42 41 39 37 32 31 29 28 32 31 35 30 30 26 22 nan 25
nan nan nan nan nan nan nan nan nan nan nan nan nan nan nan nan nan nan nan nan nan nan nan 44 45 44 40 41 46 46 44 39 42 38 37 35 34 32 30 28 28 32 31 25 nan nan nan 24 22
nan nan nan nan nan nan nan nan nan nan nan nan nan nan nan nan nan nan nan nan nan nan 24 33 45 47 43 41 46 43 38 39 38 37 38 34 30 30 28 32 31 22 25 27 25 24 29 27 20
nan nan nan nan nan nan nan nan nan nan nan nan nan nan nan nan nan nan nan nan nan 26 23 24 45 45 44 44 40 37 34 40 35 37 36 36 29 30 29 32 26 27 24 22 19 23 25 24 23
nan nan nan nan nan nan nan nan nan nan nan nan nan nan nan nan nan nan nan nan nan 22 21 25 39 43 45 45 32 35 37 36 40 38 37 33 33 31 29 31 27 25 22 20 16 16 21 20 23
nan nan nan nan nan nan nan nan nan nan nan nan nan nan nan nan nan nan nan nan 21 16 20 26 32 40 44 40 36 34 36 38 42 40 38 38 33 30 30 29 26 27 26 25 23 22 18 18 20
nan nan nan nan nan nan nan nan nan nan nan nan nan nan nan nan nan nan nan nan 20 19 23 24 30 39 43 35 38 35 38 40 40 41 39 38 34 32 35 27 27 27 28 29 27 26 23 22 21
nan nan nan nan nan nan nan nan nan nan nan nan nan nan nan nan nan nan nan nan 23 22 24 27 34 34 44 37 36 34 41 40 41 42 38 36 34 33 31 29 29 30 29 25 23 19 21 22 25
nan nan nan nan nan nan nan nan nan nan nan nan nan nan nan nan nan nan nan nan 28 23 29 34 35 38 40 39 36 37 41 43 43 40 35 34 33 33 30 34 31 32 28 24 22 22 20 22 21
nan nan nan nan nan nan nan nan nan nan nan nan nan nan nan nan nan nan nan 35 30 28 30 30 37 41 38 38 36 40 41 43 41 40 36 35 34 34 37 33 32 26 26 20 19 19 19 20 23
nan nan nan nan nan nan nan nan nan nan nan nan nan nan nan nan nan nan nan 31 31 28 28 34 39 41 38 40 40 40 41 39 37 37 36 39 36 33 33 31 27 20 17 13 14 14 12 16 19
nan nan nan nan nan nan nan nan nan nan nan nan nan nan nan nan nan nan nan 29 29 29 31 37 43 41 39 41 39 37 36 34 35 33 35 34 31 27 23 20 16 15 12 11 10 10 8 11 14
nan nan nan nan nan nan nan nan nan nan nan nan nan nan nan nan nan nan 27 28 29 32 35 40 43 39 41 34 34 33 28 32 30 31 29 27 25 20 13 15 13 14 12 8 8 8 8 3 3
nan nan nan nan nan nan nan nan nan nan nan nan nan nan nan nan nan nan 27 30 31 32 37 40 42 38 38 35 33 25 29 25 24 25 24 23 20 15 12 11 10 8 9 9 12 15 14 5 6
nan nan nan nan nan nan nan nan nan nan nan nan nan nan nan nan 23 24 25 28 30 34 38 40 40 36 35 31 28 27 26 23 22 20 21 19 16 13 10 9 7 6 7 10 9 12 11 8 6
nan nan nan nan nan nan nan nan nan nan nan nan nan nan 18 19 20 19 22 27 33 36 39 38 35 31 30 26 26 23 24 20 19 20 8 13 12 11 11 8 6 4 6 8 9 10 7 4 6
nan nan nan nan nan nan nan nan nan nan nan nan nan nan 19 13 14 18 23 27 34 35 35 32 30 31 25 25 20 21 19 15 17 13 5 10 11 8 8 5 2 4 3 7 7 4 9 9 9
nan nan nan nan nan nan nan nan nan nan nan nan nan nan 14 14 17 19 25 31 32 32 30 29 29 25 22 21 21 21 18 15 14 10 4 7 9 4 7 3 0 2 2 1 4 4 5 9 9
nan nan nan nan nan nan nan nan nan nan nan nan nan nan 14 15 18 22 28 31 34 28 28 26 23 21 21 19 21 18 16 11 11 7 6 6 6 2 4 4 3 2 2 1 4 5 10 10 10
nan nan nan nan nan nan nan nan nan nan nan 27 22 25 16 15 20 26 31 33 28 26 25 20 19 20 18 19 18 13 11 7 5 8 6 11 6 0 nan 1 nan 5 2 3 3 7 15 17 9
Wind_Direction
nan nan nan nan nan nan nan nan nan nan nan nan nan nan nan nan nan nan nan nan nan nan 314 322 324 323 324 323 323 326 324 nan nan nan nan nan nan nan nan nan nan nan nan nan nan nan nan nan nan
nan nan nan nan nan nan nan nan nan nan nan nan nan nan nan nan nan nan nan nan nan nan 317 323 324 321 320 324 325 329 328 330 nan nan nan nan nan nan nan nan nan nan nan nan nan nan nan nan nan
nan nan nan nan nan nan nan nan nan nan nan nan nan nan nan nan nan nan nan 304 nan nan 321 326 326 325 321 327 327 331 331 329 330 nan nan nan nan nan nan nan nan nan nan nan nan nan 259 262 nan
nan nan nan nan nan nan nan 294 nan nan nan nan nan nan nan nan nan nan nan 308 nan nan 325 321 327 328 326 331 329 331 329 329 331 327 321 nan nan 310 307 nan nan nan 301 277 266 nan 255 257 nan
nan nan nan nan nan nan nan nan 217 232 nan nan nan nan nan nan nan nan nan nan 316 nan 324 320 326 327 327 330 328 331 330 329 330 325 324 322 317 312 303 293 295 298 297 288 278 264 257 252 nan
nan nan nan nan nan nan nan nan nan nan nan nan nan nan nan nan nan nan nan nan nan nan nan 321 324 324 326 329 328 329 330 328 327 327 325 322 320 318 313 308 299 290 286 276 269 261 257 250 252
nan nan nan nan nan nan nan nan nan nan nan nan nan nan nan nan nan nan nan nan nan nan nan 325 320 321 323 327 325 329 329 327 326 328 325 325 323 316 311 300 297 289 286 275 262 255 250 254 245
nan nan nan nan nan nan nan nan nan nan nan nan nan nan nan nan nan nan nan nan nan 327 nan 328 320 321 328 325 326 328 327 326 325 327 326 326 324 321 317 312 319 nan nan nan nan nan nan 247 250
nan nan nan nan nan nan nan nan nan nan nan nan nan nan nan nan nan nan nan nan nan nan 326 324 322 322 323 325 326 326 327 324 322 327 329 322 324 316 323 329 305 nan nan nan nan nan nan nan nan
nan nan nan nan nan nan nan nan nan nan nan nan nan nan nan nan nan nan nan nan nan nan 327 325 317 322 319 325 326 323 322 319 321 327 325 320 319 314 305 296 309 nan nan nan nan nan nan 277 nan
nan nan nan nan nan nan nan nan nan nan nan nan nan nan nan nan nan nan nan nan nan nan 313 324 318 315 322 322 321 314 314 312 321 325 321 319 312 308 315 312 308 305 317 303 305 303 292 nan 263
nan nan nan nan nan nan nan nan nan nan nan nan nan nan nan nan nan nan nan nan nan nan nan 319 324 313 319 317 317 316 311 317 317 320 326 320 315 318 318 311 303 297 299 290 nan nan nan 262 256
nan nan nan nan nan nan nan nan nan nan nan nan nan nan nan nan nan nan nan nan nan nan 305 313 320 317 317 319 315 310 311 316 319 321 322 324 322 320 315 308 305 296 297 291 283 279 269 267 265
nan nan nan nan nan nan nan nan nan nan nan nan nan nan nan nan nan nan nan nan nan 307 298 308 318 316 316 311 315 310 312 316 321 322 322 325 320 316 313 312 312 307 304 300 283 270 265 263 258
nan nan nan nan nan nan nan nan nan nan nan nan nan nan nan nan nan nan nan nan nan 305 309 308 311 315 316 314 316 313 312 322 321 323 321 323 320 316 312 314 313 304 296 298 288 287 280 270 264
nan nan nan nan nan nan nan nan nan nan nan nan nan nan nan nan nan nan nan nan 295 292 304 313 315 314 311 315 315 307 314 323 320 320 320 323 321 317 311 311 310 308 299 294 285 279 279 268 261
nan nan nan nan nan nan nan nan nan nan nan nan nan nan nan nan nan nan nan nan 292 291 305 317 314 312 314 311 310 314 312 316 318 317 318 321 320 316 310 309 308 307 300 295 290 282 272 261 268
nan nan nan nan nan nan nan nan nan nan nan nan nan nan nan nan nan nan nan nan 289 283 300 313 307 304 306 304 304 311 306 315 315 313 317 317 314 311 310 313 310 307 304 296 293 285 280 269 268
nan nan nan nan nan nan nan nan nan nan nan nan nan nan nan nan nan nan nan nan 271 284 304 306 308 307 306 300 307 306 307 310 310 311 315 310 315 307 311 310 306 304 300 296 289 279 269 265 256
nan nan nan nan nan nan nan nan nan nan nan nan nan nan nan nan nan nan nan 280 275 297 302 305 308 304 310 306 301 301 301 305 309 311 310 311 309 309 302 310 307 306 300 300 296 286 275 258 255
nan nan nan nan nan nan nan nan nan nan nan nan nan nan nan nan nan nan nan 272 277 299 300 300 306 309 307 302 292 292 295 297 305 309 313 315 311 308 313 311 311 310 309 299 300 290 286 264 262
nan nan nan nan nan nan nan nan nan nan nan nan nan nan nan nan nan nan nan 273 287 296 296 294 299 305 305 298 297 299 302 310 310 304 302 306 308 318 312 313 332 336 319 321 315 321 317 269 249
nan nan nan nan nan nan nan nan nan nan nan nan nan nan nan nan nan nan 273 275 294 296 293 293 298 306 297 304 301 300 310 308 307 309 305 318 316 316 333 339 342 349 352 351 352 346 334 307 233
nan nan nan nan nan nan nan nan nan nan nan nan nan nan nan nan nan nan 265 283 291 292 293 296 305 301 299 298 297 311 303 302 309 316 314 314 324 340 0 9 358 337 359 23 24 16 20 40 133
nan nan nan nan nan nan nan nan nan nan nan nan nan nan nan nan 248 262 280 292 290 294 298 303 306 300 301 299 303 307 307 311 319 318 325 327 335 345 7 10 332 327 339 15 9 12 26 48 121
nan nan nan nan nan nan nan nan nan nan nan nan nan nan 243 239 258 281 289 288 295 298 306 304 301 304 307 309 313 305 310 322 324 319 301 305 333 355 358 350 330 344 14 12 22 21 52 93 120
nan nan nan nan nan nan nan nan nan nan nan nan nan nan 277 282 286 290 288 295 297 301 303 300 301 305 310 314 311 310 316 300 296 307 335 315 343 353 358 324 316 59 5 54 59 66 84 97 128
nan nan nan nan nan nan nan nan nan nan nan nan nan nan 285 282 292 293 293 296 300 300 298 303 303 309 313 315 312 318 308 317 316 332 334 319 343 330 352 304 147 92 139 152 314 335 10 111 127
nan nan nan nan nan nan nan nan nan nan nan nan nan nan 309 314 300 300 297 300 301 300 302 307 310 315 315 312 321 304 309 336 330 325 353 339 345 287 57 317 81 87 228 64 1 23 92 126 117
nan nan nan nan nan nan nan nan nan nan nan 186 177 252 293 302 302 299 302 305 306 302 311 317 316 316 318 321 323 309 323 359 314 0 347 322 40 324 nan 336 nan 218 282 238 8 20 35 57 57